Zurück zum Katalog

MIDAS 5 DEB

AktivPO
NORAD 274·DEBRIS·🇺🇸 United States

Gestartet Apr 9, 1962 von Vandenberg Space Force Base

Loading…

Nächste Überflüge (nächste 24 Stunden)

TLE

AktuellSource: Space-Track

Epoche: Sep 14, 2026, 14:39 UTC

1 00274U 62010D   26257.61050551 -.00000048  00000-0 -10901-1 0  9993
2 00274  86.6708 320.7270 0345368  60.4080 303.0773  9.39363623209185

Verfolge MIDAS 5 DEB in Echtzeit mit AllMySat

Download on the App Store